www.pogodaiklimat.ru

Погода и климат >> Архив погоды >> Пакистан >> Islamabad


АРХИВ ПОГОДЫ в Islamabad

Время (UTC), дата Ветер
(напр.,м/с)
 
Видим.   Явления Облачность Т
(С)
Тd
(С)
f
(%)
Тe
(С)
Тes
(С)
Комфортность P
(гПа)
Po
(гПа)
Тmin
(С)
Tmax
(С)
R
(мм)
R24
(мм)
S
(см)
09 13.09 В 5 4000 м мгла 5/5 1000 м
[Cu med, cong]
+33.0 +24.8 62 +46 +49 опасность
перегрева
1000.7 946.2
12 13.09 ЮВ 4 4000 м мгла 3/3 1000 м
[Cu med, cong]
+32.5 +11.2 27 +45 +46 опасность
перегрева
896.9 873.6 +35.1
15 13.09 З 3 н/о ясно +28.0 +3.0 20 +26 +26 жарко 846.5 838.2
18 13.09 ЮВ 9 н/о гроза без осадков 9/8 1000 м
[Cb cap Ac trans]
+24.5 +20.1 76 +30 +30 очень
душно
1004.0 947.8
03 14.09 ЮВ 3 10 км 5/4 1000 м
[Cu med, cong Ac trans]
+24.5 +19.3 73 +30 +31 очень
душно
1006.3 950.0 +20.0
06 14.09 ЮЗ 1 10 км 5/3 1000 м
[Cu med, cong Ac trans]
+28.5 +19.7 59 +34 +44 очень
душно
1007.5 951.8
09 14.09 СВ 1 10 км 1/1 1000 м
[Cu med, cong]
+31.0 +19.3 50 +37 +50 очень
душно
1005.8 950.6
12 14.09 ЮВ 3 10 км 8/4 1000 м
[Cu med, cong Ac trans]
+31.0 +20.1 52 +37 +38 очень
душно
1004.9 949.7 +33.1
15 14.09 ЮВ 5 н/о зарница 9/6 1000 м
[Cb calv Ac trans]
+29.0 +19.4 56 +35 +35 очень
душно
1006.5 951.0 0.0
18 14.09 0 зарница {дождь, морось} н/о +27.3 +20.4 66 +34 +34 очень
душно
1005.8 949.9 0.0
21 14.09 ЮВ 4 <100 м слабый дождь {морось} 9/6 1000 м
[Cb calv As op]
+25.5 +20.4 73 +31 +31 очень
душно
1008.2 951.9 0.0
00 15.09 ЮВ 4 н/о мгла {дождь} 9/5 1000 м
[Cu med, cong Ac trans]
+23.0 +18.5 76 +29 +29 очень
душно
1008.6 951.8 0.0
03 15.09 С 2 10 км 9/4 1000 м
[Cu med, cong Ac trans]
+23.5 +17.3 68 +27 +28 душно 1009.5 952.8 +21.5
06 15.09 ЮЗ 2 10 км 9/4 1000 м
[Cu med, cong Ac trans]
+28.0 +16.5 50 +32 +36 душно 1010.1 954.0
09 15.09 СЗ 3 4000 м мгла {дождь} 9/6 1000 м
[Cb calv Ac trans]
+26.5 +17.3 57 +31 +33 душно 1010.0 953.7 0.0
12 15.09 СВ 2 10 км 9/6 1000 м
[Cb calv Ac trans]
+27.0 +17.9 57 +31 +32 душно 1008.8 952.8 +29.1
15 15.09 В 5 н/о 9/5 1000 м
[Cu med, cong Ac trans]
+25.0 +18.2 66 +29 +29 душно 1009.9 953.2 0.0
18 15.09 СЗ 1 <100 м 5/3 1000 м
[Cu med, cong Ac trans]
+22.5 +16.8 70 +27 +27 душно 1010.5 953.4
21 15.09 СВ 2 н/о 3/3 1000 м
[Cu med, cong]
+20.5 +16.3 77 +24 +24 комфорт 1009.7 952.3
00 16.09 штиль 0 н/о 3/1 1000 м
[Cu med, cong Ac trans]
+20.0 +17.7 87 +23 +23 комфорт 1008.9 951.5 0.0
03 16.09 штиль 0 10 км ясно +22.0 +16.5 71 +26 +31 душно 1009.6 952.5 +19.5
06 16.09 штиль 0 10 км ясно +28.5 +17.1 50 +32 +52 опасность
солнечного
удара
1008.1 954.2
09 16.09 СВ 2 10 км 1/1 1000 м
[Cu med, cong]
+32.0 +16.9 40 +35 +46 очень
душно
1005.8 950.9
12 16.09 З 2 10 км 1/1 1000 м
[Cu med, cong]
+31.0 +17.2 44 +35 +36 очень
душно
1005.1 949.9 +32.5 0.0
15 16.09 З 3 <100 м 1/1 1000 м
[Cu med, cong]
+26.5 +16.5 54 +30 +30 душно 1006.7 950.6
18 16.09 штиль 0 <100 м 1/1 1000 м
[Cu med, cong]
+24.0 +17.9 69 +28 +28 душно 1006.8 950.4
21 16.09 штиль 0 <100 м ясно +23.0 +18.5 76 +29 +29 очень
душно
1010.8 949.3
00 17.09 штиль 0 <100 м ясно +21.0 +18.7 87 +25 +25 комфорт 1006.3 949.1
03 17.09 СВ 2 10 км ясно +23.0 +16.8 68 +28 +31 душно 1007.7 951.0 +19.5
06 17.09 ЮВ 1 10 км ясно +29.5 +17.4 48 +34 +50 очень
душно
1007.0 951.5
09 17.09 С 1 10 км 1/1 1000 м
[Cu med, cong]
+33.0 +16.3 37 +36 +49 очень
душно
1004.4 949.7
15 17.09 СЗ 1 <100 м ясно +28.0 +17.4 53 +32 +32 душно 1004.9 949.2
18 17.09 СВ 2 н/о ясно +24.0 +17.9 69 +28 +28 душно 1006.0 949.6
21 17.09 СВ 1 <100 м ясно +21.0 +17.1 78 +26 +26 душно 1006.8 949.6
00 18.09 СВ 2 <100 м ясно +21.0 +17.1 78 +26 +26 душно 1006.6 949.4
03 18.09 В 1 10 км ясно +24.0 +17.0 65 +28 +32 душно 1007.4 951.0 +20.5
06 18.09 ЮВ 1 10 км ясно +30.0 +16.5 44 +33 +50 душно 1013.4 951.4
09 18.09 СЗ 1 10 км ясно +34.0 +17.6 38 +38 +52 опасность
солнечного
удара
1004.3 949.8
12 18.09 З 3 10 км ясно +33.0 +17.3 39 +37 +38 очень
душно
1003.0 948.4 +35.0
15 18.09 СЗ 1 <100 м ясно +28.5 +16.2 47 +32 +32 душно 1004.9 949.3
18 18.09 штиль 0 50 км ?/? +22.6 +18.2 76 +28 +28 душно 1005.9 949.7
21 18.09 штиль 0 <100 м ясно +23.0 +18.5 76 +29 +29 очень
душно
1005.9 949.2
00 19.09 штиль 0 <100 м ясно +21.0 +17.1 78 +25 +25 комфорт 1007.0 949.8
03 19.09 СВ 1 10 км ясно +24.0 +16.2 62 +27 +31 жарко 1008.4 951.9 +20.5
06 19.09 ЮВ 4 10 км ясно +31.0 +18.4 47 +36 +45 очень
душно
1007.1 951.8
09 19.09 З 4 10 км 3/1 1000 м
[Cu med, cong Ci fib]
+34.0 +19.5 43 +40 +46 очень
душно
1003.6 949.0
12 19.09 ЮЗ 1 10 км 1/1 1000 м
[Cu med, cong]
+34.0 +20.4 45 +41 +42 опасность
перегрева
1002.0 948.0 +35.1
15 19.09 СВ 1 <100 м 1/1 1000 м
[Sc]
+29.0 +19.4 56 +35 +35 очень
душно
1003.9 948.5
18 19.09 СВ 1 <100 м ясно +26.5 +19.9 67 +32 +32 очень
душно
1005.3 949.2
21 19.09 СВ 2 н/о ясно +24.5 +20.1 76 +30 +30 очень
душно
1005.0 948.8
00 20.09 СЗ 2 н/о 1/0
[]
+23.0 +20.0 83 +30 +30 очень
душно
1005.9 949.2
03 20.09 В 3 10 км ясно +26.5 +19.9 67 +32 +35 очень
душно
1007.0 950.9 +22.5

 

Местоположение метеостанции Islamabad (Пакистан): широта 33.62 долгота 73.10 высота над уровнем моря 508 м.

В архиве по умолчанию представлена погода в Islamabad за последнюю неделю. Архивные данные за месяц целиком и за предыдущие месяцы, начиная с января 2011 года, Вы можете получить, выбрав интересующий диапазон дат из раскрывающегося списка и нажав кнопку "Ввод!".


*Определитесь, кто Вы:
робот инопланетянин человек

Внимание! Время в таблицах - всемирное. Для получения местного времени необходимо прибавить поправку, которая в Islamabad равна 5 ч.

Смотрите также архив погоды в соседних городах и на ближайших метеорологических станциях:

Погода в Murree (Пакистан) (42 км)
Погода в Kakul (Пакистан) (64 км)
Погода в Balakor (Пакистан) (88 км)
Погода в Jhelum (Пакистан) (96 км)
Погода в Risalpur (Пакистан) (116 км)
Погода в Gulmarg (Jammu and Kashmir, Индия) (129 км)
Погода в Saidu Sharif (Пакистан) (141 км)
Погода в Kupwara (Jammu and Kashmir, Индия) (147 км)
Погода в Peshawar (Пакистан) (147 км)
Погода в Kohat (Пакистан) (155 км)

Пояснения к столбцам:

Ветер - указаны скорость ветра в м/с - средняя за 10 мин, порывы в срок и между сроками (в фигурных скобках) и направление, откуда дует ветер: С - северный, СВ - северо-восточный, В - восточный, ЮВ - юго-восточный, Ю - южный, ЮЗ - юго-западный, З - западный, СЗ - северо-западный.
Видимость - горизонтальная дальность видимости в метрах или километрах. При видимости от 1 до 10 км при отсутствии осадков обычно наблюдается дымка, при ухудшении видимости до 1 км и менее - туман. В сухую погоду видимость может ухудшаться дымом, пылью или мглою.
Явления - указаны атмосферные явления, наблюдавшиеся в срок или в последний час перед сроком; фигурными скобками обозначены явления, наблюдавшиеся между сроками (за 1-3 часа до срока); квадратными скобками обозначены град или гололедные отложения с указанием их диаметра в мм.
Облачность - указаны через наклонную черту общая и нижняя облачность в баллах и высота нижней границы облаков в метрах; квадратными скобками обозначены формы облаков: Ci - перистые, Cs - перисто-слоистые, Cc - перисто-кучевые, Ac - высококучевые, As - высокослоистые, Sc - слоисто-кучевые, Ns - слоисто-дождевые, Cu - кучевые, Cb - кучево-дождевые. Подробнее классификацию облаков см. в Атласе облаков (PDF).
T - Температура воздуха - температура, измеренная на высоте 2 м над землей.
Td - Температура точки росы - температура, при понижении до которой содержащийся в воздухе водяной пар достигнет насыщения.
f - Относительная влажность воздуха - влажноcть воздуха, измеренная на высоте 2 м над землей.
Te - Эффективная температура - температура, которую ощущает одетый по сезону человек в тени. Характеристика душности погоды. При расчете учитывается влияние влажности воздуха и скорости ветра на теплоощущения человека.
Tes - Эффективная температура на солнце - температура, которую ощущает человек, с поправкой на солнечный нагрев. Характеристика знойности погоды. Зависит от высоты солнца над горизонтом, облачности и скорости ветра. Ночью, в пасмурную погоду, а также при ветре 12 м/с и более поправка равна нулю.
P - Атмосферное давление - приведенное к уровню моря атмосферное давление.
Po - Атмосферное давление - измеренное на уровне метеостанции атмосферное давление.
Tmin - Минимальная температура - минимум температуры воздуха на высоте 2 м над землей.
Tmax - Максимальная температура - максимум температуры воздуха на высоте 2 м над землей.
R - Количество осадков - Количество выпавших осадков за период времени, мм. При наведении курсора мыши на число - период времени, за который выпало указанное количество осадков.
R24 - Количество осадков - Количество выпавших осадков за 24 часа, мм.
S - Снежный покров - Высота снежного покрова, см. При наведении курсора мыши на число - состояние снежного покрова и степень покрытия местности в баллах.